Weather Roundup
Issued by NWS

Home | Current Version | Previous Version | Graphics & Text | Print | Product List | Glossary Off
Versions: 1 2 3 4 5 6 7 8 9 10 11 12 13 14 15 16 17 18 19 20 21 22 23 24 25 26 27 28 29 30 31 32 33 34 35 36 37 38 39 40 41 42 43 44 45 46 47 48 49 50

000
NZUS93 KARX 031310
HRRWXR

CURRENT HOURLY OBSERVATIONS ACROSS
MUCH OF THE UPPER MISSISSIPPI VALLEY
NATIONAL WEATHER SERVICE LA CROSSE WI
800 AM CDT MON AUG 03 2015


...SOUTHEAST MINNESOTA...


CITY           SKY/WX    TMP DP  RH WIND       PRES   REMARKS
ROCHESTER      SUNNY     61  54  77 W8        29.93R
ROCHESTER/MAYO FAIR      61  49  65 W9        29.91R
WINONA         SUNNY     63  54  72 CALM      29.89R
AUSTIN         SUNNY     64  54  68 SW5       29.93R
ALBERT LEA     SUNNY     63  57  82 W5        29.94R
DODGE CENTER   MOSUNNY   59  54  82 W9        29.92R
PRESTON        SUNNY     61  53  74 W7        29.92S
OWATONNA       SUNNY     61  55  82 W5        29.93R
FARIBAULT      SUNNY     63  55  77 W6        29.92R
$$

...ELSEWHERE IN MINNESOTA...


CITY           SKY/WX    TMP DP  RH WIND       PRES   REMARKS
MINNEAPOLIS    SUNNY     66  53  63 NW7       29.89R
INTNL FALLS    CLOUDY    59  52  77 W7        29.81R
DULUTH         MOSUNNY   61  49  64 NW13G23   29.82R
RED WING       SUNNY     63  55  77 W5        29.88R
REDWOOD FALLS  SUNNY     61  53  75 NW6       29.95R
MANKATO        SUNNY     59  54  82 W5        29.94R
WORTHINGTON    SUNNY     61  54  77 W5        29.99R
FAIRMONT       SUNNY     61  52  72 CALM      29.96R
$$

...SOUTHWEST WISCONSIN...


CITY           SKY/WX    TMP DP  RH WIND       PRES   REMARKS
LA CROSSE      SUNNY     67  55  65 S5        29.88R
PRAIRIE DU CHI SUNNY     65  56  72 NW3       29.89S
BOSCOBEL       SUNNY     64  58  80 CALM      29.89R
LONE ROCK      SUNNY     65  54  67 W7        29.89R
PLATTEVILLE    SUNNY     65  57  74 W3        29.90R
FORT MC COY    SUNNY     63  51  65 W3        29.87S
VIROQUA        FAIR      62  56  78 W5        29.90R
WIS DELLS      SUNNY     65  48  55 W6        29.86S
$$

...ELSEWHERE IN WISCONSIN...


CITY           SKY/WX    TMP DP  RH WIND       PRES   REMARKS
MILWAUKEE      MOSUNNY   69  53  56 NW9       29.83R
MADISON        SUNNY     67  53  61 NW3       29.85S
GREEN BAY      SUNNY     63  57  81 W9        29.79R
EAU CLAIRE     SUNNY     61  51  70 W8        29.85R
BLACK RVR FLS  FAIR      64  51  62 W5        29.86S
MEDFORD        SUNNY     58  50  73 W7        29.84R
WAUSAU         SUNNY     60  50  69 NW9       29.81R
WIS RAPIDS     SUNNY     62  49  62 NW8       29.85R
MARSHFIELD     SUNNY     61  50  67 NW8       29.84S
RICE LAKE      PTSUNNY   58  52  79 CALM      29.87R
$$

...NORTHEAST IOWA...


CITY           SKY/WX    TMP DP  RH WIND       PRES   REMARKS
DECORAH        SUNNY     61  55  82 VRB5      29.92R
MASON CITY     SUNNY     62  58  86 W7        29.96S
CHARLES CITY   SUNNY     61  59  94 NW5       29.95R
OELWEIN        SUNNY     61  57  88 NW3       29.94
$$

...ELSEWHERE IN IOWA...


CITY           SKY/WX    TMP DP  RH WIND       PRES   REMARKS
DES MOINES     MOSUNNY   71  58  63 N3        29.94R
IOWA CITY      SUNNY     70  57  63 N9        29.91S
FORT DODGE     SUNNY     63  57  82 CALM      29.97S
$$

...NORTHERN ILLINOIS...


CITY           SKY/WX    TMP DP  RH WIND       PRES   REMARKS
CHICAGO-OHARE  MOSUNNY   71  60  68 NW13      29.83R
CHICAGO-MIDWAY MOSUNNY   73  64  73 N9        29.82R
MOLINE         SUNNY     71  60  68 N9        29.87R
ROCKFORD       MOSUNNY   69  57  65 N12       29.88R
PEORIA         SUNNY     74  64  71 NW3       29.86R
$$

NOTE: "FAIR" INDICATES FEW OR NO CLOUDS BELOW 12,000 FEET WITH NO
SIGNIFICANT WEATHER AND/OR OBSTRUCTIONS TO VISIBILITY. WIND
SPEEDS ARE IN MILES-PER-HOUR.



USA.gov is the U.S. government's official web portal to all federal, state and local government web resources and services.